User: anonymous   Login
Location: Vancouver
(49.2500°N, 123.1330°W)
Time: 03:34:44
(UTC-07:00)
Language:

Transit 2A Rocket - Orbit

View from above orbital plane
View from above orbital plane
View from above satellite
View from above satellite

Ground track
Ground track

The orbit data is extracted from the following two-line orbital elements,

1 00047U 60007C   16268.01363372 -.00000017  00000-0  21401-4 0  9993
2 00047  66.6660 197.3805 0233519 221.2671 137.0581 14.41857129938681
Epoch (UTC): 24 September 2016 00:19:37
Eccentricity: 0.0233519
inclination: 66.6660°
perigee height: 586 km
apogee height: 919 km
right ascension of ascending node: 197.3805°
argument of perigee: 221.2671°
revolutions per day: 14.41857129
mean anomaly at epoch: 137.0581°
orbit number at epoch: 93868

The dashed part of the orbit path shows where the satellite is in the earth's shadow,  

DLR